Regional Weather Roundup
Issued by NWS Midland/Odessa, TX

Skip options and go directly to product.
Home | Oldest Version | Previous Version | Current Version | All | Text Only | Save Text | Print | Product List | Glossary On

Skip product version selection by date and time.   
195
ASUS44 KMAF 010910
RWRMAF
MIDLAND AREA WEATHER ROUNDUP
NATIONAL WEATHER SERVICE MIDLAND TX
400 AM CDT FRI AUG 01 2014

...IN SOUTHWEST TEXAS AND SOUTHEAST NEW MEXICO...

CITY           SKY/WX    TMP DP  RH WIND       PRES   REMARKS
ALPINE         PTCLDY    66  59  77 N6        30.24R
ANDREWS        FAIR      69  59  71 E8        30.15S
ARTESIA        CLOUDY    68  64  88 N20G28    30.18R
BIG SPRING     MOCLDY    70  61  73 E5        30.14F
CARLSBAD       CLOUDY    73  66  78 CALM      30.13R
DRYDEN           N/A     81  62  52 NE12      30.04R
FORT STOCKTON  CLOUDY    74  59  59 E9        30.11F
GUAD PASS      MOCLDY    65  57  75 NE21        N/A
HOBBS          CLOUDY    68  57  68 E8        30.18S
MARFA          MOCLDY    66  59  77 N8        30.22R
MIDLAND AIRPK  MOCLDY    71  61  72 E7        30.14S
MIDLAND INTL   CLOUDY    71  61  70 E13       30.12F
ODESSA         CLOUDY    72  60  66 E13       30.14S
PECOS          CLOUDY    76  58  53 E13       30.08F
PRESIDIO       FAIR      81  61  51 NE6       30.05S
SEMINOLE       CLOUDY    68  58  71 E7        30.17S
SNYDER         PTCLDY    67  62  84 NE3       30.12F
WINK           CLOUDY    76  60  57 E12       30.09S
$$
...OTHER STATIONS IN TEXAS...

CITY           SKY/WX    TMP DP  RH WIND       PRES   REMARKS
ABILENE        PTCLDY    68  63  84 CALM      30.09S
AMARILLO       PTCLDY    61  54  77 S5        30.20S
AUSTIN         CLOUDY    77  65  66 NE9       30.00R
BROWNSVILLE    CLEAR     80  76  87 SE10      29.91F
CORPUS CHRISTI MOCLDY    80  76  87 S8        29.92S
DALLAS FTW     CLOUDY    71  66  84 N9        30.00F
DEL RIO        CLEAR     80  67  64 NE6       29.95F
EL PASO        CLOUDY    69  63  81 NE21G26   30.17R
HOUSTON INT    MOCLDY    75  74  96 SW3       29.93F
LUBBOCK        MOCLDY    65  58  78 SE3       30.17S
SAN ANGELO     PTCLDY    69  61  75 CALM      30.08F
SAN ANTONIO    MOCLDY    80  64  58 NE7       29.99F
WACO           CLOUDY    72  65  78 N10       30.00S
WICHITA FALLS  NOT AVBL
$$
...OTHER LOCATIONS IN NEW MEXICO...

CITY           SKY/WX    TMP DP  RH WIND       PRES   REMARKS
ALAMAGORDO     HVY RAIN  64  64 100 N8        30.20R
ALBUQUERQUE    MOCLDY    64  54  69 E8        30.27F
CANNON AFB     CLOUDY    63  54  72 SE3       30.24R
CLOVIS         NOT AVBL
HOLLOMAN AFB   RAIN      64  64 100 NE12      30.18S FOG
ROSWELL        RAIN      66  64  93 N13       30.19S FOG
RUIDOSO        LGT RAIN  55  55 100 N5        30.37F
SANTA FE       MOCLDY    57  53  86 SE8       30.33
TRUTH OR CONSE CLOUDY    64  60  87 NE5       30.22R
TUCUMCARI      CLOUDY    69  55  60 SE3       30.21S
$$

USA.gov is the U.S. government's official web portal to all federal, state and local government web resources and services.